Location: Marcé
(47.5801°N, 0.3280°W)
Time: 14:30:34
(UTC+01:00)

Tiros 1 despin weight - Pass Details

Date: 17 December 2021
Orbit: 592 x 641 km, 48.2° (Epoch: 19 January)

Event Time Altitude Azimuth Distance (km) Brightness Sun altitude
Rises 08:01:47 0° 199° (SSW) 2,891 ? -7.0°
Reaches altitude 10° 08:04:47 10° 179° (S) 1,978 ? -6.5°
Maximum altitude 08:07:42 17° 139° (SE) 1,562 ? -6.1°
Drops below altitude 10° 08:10:37 10° 98° (E) 1,965 ? -5.6°
Sets 08:13:34 0° 79° (E) 2,862 ? -5.2°
